Home > Weather > Shantou > Past weeks

Flag for China Weather for the Past 2 Weeks in Shantou, Guangdong, China

Now
63 °F

Sunny.


Feels Like: 63 °F
Forecast: 41 / 63 °F
Wind: 1 mph from North

Location: Shantou Airport

Current Time: Feb 8, 2016 at 12:52:23 PM

Latest Report: Feb 8, 2016 at 12:00 PM


Visibility: 10 mi

Pressure: 30.27 "Hg

Humidity: 30%

Dew point: 30 °F

Location of ShantouLocation

Historic Weather in Shantou — Graph

°F

Shantou Temperature Yesterday

Maximum temperature yesterday: 68 °F (at 4:00 PM)
Minimum temperature yesterday: 45 °F (at 7:00 AM)
Average temperature yesterday: 54 °F

High & Low Weather Summary for the Past Weeks

 TemperatureHumidityPressure
High70 °F (Feb 4, 3:00 PM)100% (Jan 27, 11:00 PM)30.66 "Hg (Jan 27, 11:00 PM)
Low34 °F (Jan 25, 7:00 AM)13% (Feb 7, 3:00 PM)30.04 "Hg (Jan 29, 3:00 AM)
Average53 °F70%30.25 "Hg
* Reported Jan 24 11:00 AM — Feb 8 11:00 AM, Shantou, Weather by CustomWeather, © 2016

Note: Actual official high and low records may vary slightly from our data, if they occured in-between our weather recording intervals... More about our weather records

Advertising

Shantou Weather History for the Previous 24 Hours

 ConditionsComfort  
Time TempWeatherWind HumidityBarometerVisibility
11:00 AM
Mon, Feb 8
59 °FSunny.1 mph42%30.30 "Hg10 mi
10:00 AM54 °FClear.3 mph58%30.33 "Hg4 mi
9:00 AM50 °FHaze.No wind71%30.33 "Hg3 mi
8:00 AM45 °FFog.1 mph76%30.30 "Hg3 mi
7:00 AM39 °FFog.No wind93%30.30 "Hg2 mi
6:00 AM39 °FFog.No wind93%30.27 "Hg3 mi
5:00 AM41 °FClear.1 mph87%30.27 "Hg4 mi
4:00 AM41 °FClear.3 mph87%30.27 "Hg4 mi
3:00 AM43 °FFog.1 mph87%30.30 "Hg2 mi
2:00 AM46 °FFog.3 mph87%30.30 "Hg2 mi
1:00 AM46 °FFog.3 mph87%30.30 "Hg2 mi
12:00 AM46 °FFog.1 mph87%30.30 "Hg3 mi
11:00 PM
Sun, Feb 7
46 °FFog.1 mph87%30.30 "Hg3 mi
10:00 PM48 °FClear.1 mph82%30.30 "Hg4 mi
9:00 PM50 °FClear.3 mph76%30.30 "Hg4 mi
8:00 PM52 °FClear.3 mph67%30.27 "Hg10 mi
7:00 PM57 °FPassing clouds.8 mph41%30.27 "HgN/A
6:00 PM63 °FPassing clouds.8 mph20%30.24 "HgN/A
5:00 PM66 °FPassing clouds.10 mph17%30.24 "HgN/A
4:00 PM68 °FPassing clouds.10 mph16%30.21 "HgN/A
3:00 PM66 °FPassing clouds.8 mph13%30.21 "HgN/A
2:00 PM66 °FPassing clouds.6 mph17%30.24 "HgN/A
1:00 PM63 °FPassing clouds.8 mph17%30.27 "HgN/A
12:00 PM59 °FSunny.3 mph21%30.30 "Hg10 mi
Weather by CustomWeather, © 2016

See weather overviewHow to use our weather pages